,,Stat6,,Stat2,,Stat8,,Stat9,,Stat10,,Wind1,,Wind1,
time,status,PA1M_AVG,status,PR1M_SUM,status,RH1M_AVG,status,SR1M_AVG,status,TA1M_AVG,status,W1dAve1m,status,W1sAve1m,
2007-04-16, 00:00:00,VALID,918.369,VALID,0,VALID,100,VALID,-0.101885,VALID,20.584,VALID,26,VALID,1.07717,
2007-04-16, 00:01:00,VALID,918.344,VALID,0,VALID,100,VALID,-0.101885,VALID,20.5968,VALID,37,VALID,0.683789,
2007-04-16, 00:02:00,VALID,918.312,VALID,0,VALID,100,VALID,-0.118866,VALID,20.6073,VALID,49,VALID,0.659549,
2007-04-16, 00:03:00,VALID,918.299,VALID,0,VALID,100,VALID,-0.101885,VALID,20.6195,VALID,39,VALID,0.841974,
2007-04-16, 00:04:00,VALID,918.284,VALID,0,VALID,100,VALID,-0.118866,VALID,20.603,VALID,54,VALID,1.19779,
2007-04-16, 00:05:00,VALID,918.284,VALID,0,VALID,100,VALID,-0.135847,VALID,20.5646,VALID,48,VALID,0.918968,
2007-04-16, 00:06:00,VALID,918.306,VALID,0,VALID,100,VALID,-0.101885,VALID,20.5675,VALID,37,VALID,0.945126,
2007-04-16, 00:07:00,VALID,918.299,VALID,0,VALID,100,VALID,-0.135847,VALID,20.5748,VALID,39,VALID,1.04618,
2007-04-16, 00:08:00,VALID,918.308,VALID,0,VALID,100,VALID,-0.0849042,VALID,20.5743,VALID,35,VALID,0.714939,
2007-04-16, 00:09:00,VALID,918.312,VALID,0,VALID,100,VALID,-0.118866,VALID,20.5878,VALID,31,VALID,1.04345,
2007-04-16, 00:10:00,VALID,918.293,VALID,0,VALID,100,VALID,-0.118866,VALID,20.5416,VALID,31,VALID,0.939904,
2007-04-16, 00:11:00,VALID,918.292,VALID,0,VALID,100,VALID,-0.101885,VALID,20.5478,VALID,35,VALID,0.639946,
2007-04-16, 00:12:00,VALID,918.294,VALID,0,VALID,100,VALID,-0.135847,VALID,20.5553,VALID,24,VALID,0.779204,
2007-04-16, 00:13:00,VALID,918.293,VALID,0,VALID,100,VALID,-0.135847,VALID,20.5521,VALID,40,VALID,0.539971,
2007-04-16, 00:14:00,VALID,918.293,VALID,0,VALID,100,VALID,-0.0169808,VALID,20.5338,VALID,37,VALID,0.314215,
2007-04-16, 00:15:00,VALID,918.281,VALID,0,VALID,100,VALID,0,VALID,20.5365,VALID,37,VALID,0.0664063,
2007-04-16, 00:16:00,VALID,918.288,VALID,0,VALID,100,VALID,0,VALID,20.5398,VALID,37,VALID,0,
2007-04-16, 00:17:00,VALID,918.271,VALID,0,VALID,100,VALID,-0.0339617,VALID,20.5635,VALID,37,VALID,0,
2007-04-16, 00:18:00,VALID,918.273,VALID,0,VALID,100,VALID,-0.0169808,VALID,20.5852,VALID,37,VALID,0.0111607,
2007-04-16, 00:19:00,VALID,918.271,VALID,0,VALID,100,VALID,0.0339617,VALID,20.6144,VALID,37,VALID,0,
2007-04-16, 00:20:00,VALID,918.277,VALID,0,VALID,100,VALID,0,VALID,20.6279,VALID,37,VALID,0.123598,
2007-04-16, 00:21:00,VALID,918.262,VALID,0,VALID,100,VALID,0,VALID,20.5952,VALID,37,VALID,0.00726744,
2007-04-16, 00:22:00,VALID,918.254,VALID,0,VALID,100,VALID,-0.0169808,VALID,20.6117,VALID,37,VALID,0.494097,
2007-04-16, 00:23:00,VALID,918.237,VALID,0,VALID,100,VALID,-0.0339617,VALID,20.6276,VALID,34,VALID,0.886905,
2007-04-16, 00:24:00,VALID,918.215,VALID,0,VALID,100,VALID,0,VALID,20.5884,VALID,30,VALID,1.10998,
2007-04-16, 00:25:00,VALID,918.196,VALID,0,VALID,100,VALID,-0.0169808,VALID,20.5468,VALID,28,VALID,1.21094,
2007-04-16, 00:26:00,VALID,918.177,VALID,0,VALID,100,VALID,0.0169808,VALID,20.5303,VALID,34,VALID,1.04757,
2007-04-16, 00:27:00,VALID,918.173,VALID,0,VALID,100,VALID,-0.0169808,VALID,20.5365,VALID,33,VALID,1.00055,
2007-04-16, 00:28:00,VALID,918.174,VALID,0,VALID,100,VALID,0,VALID,20.5462,VALID,20,VALID,0.657366,
2007-04-16, 00:29:00,VALID,918.172,VALID,0,VALID,100,VALID,0.0849042,VALID,20.5257,VALID,19,VALID,0.31994,
2007-04-16, 00:30:00,VALID,918.164,VALID,0,VALID,100,VALID,0.101885,VALID,20.5355,VALID,19,VALID,0.577947,
2007-04-16, 00:31:00,VALID,918.145,VALID,0,VALID,100,VALID,0.101885,VALID,20.5255,VALID,19,VALID,0.373633,
2007-04-16, 00:32:00,VALID,918.127,VALID,0,VALID,100,VALID,0.0849042,VALID,20.5292,VALID,18,VALID,0.244673,
2007-04-16, 00:33:00,VALID,918.114,VALID,0,VALID,100,VALID,0.0679233,VALID,20.526,VALID,17,VALID,0.457933,
2007-04-16, 00:34:00,VALID,918.079,VALID,0,VALID,100,VALID,0.0509425,VALID,20.5195,VALID,309,VALID,0.463663,
2007-04-16, 00:35:00,VALID,918.085,VALID,0,VALID,100,VALID,0.0679233,VALID,20.516,VALID,269,VALID,0.490585,
2007-04-16, 00:36:00,VALID,918.073,VALID,0,VALID,100,VALID,0.101885,VALID,20.5257,VALID,264,VALID,0.547965,
2007-04-16, 00:37:00,VALID,918.063,VALID,0,VALID,100,VALID,0.0849042,VALID,20.5163,VALID,260,VALID,0.367535,
2007-04-16, 00:38:00,VALID,918.055,VALID,0,VALID,100,VALID,0.0679233,VALID,20.5263,VALID,260,VALID,0.0252131,
2007-04-16, 00:39:00,VALID,918.046,VALID,0,VALID,100,VALID,0.101885,VALID,20.5362,VALID,260,VALID,0,
2007-04-16, 00:40:00,VALID,918.037,VALID,0,VALID,100,VALID,0.0849042,VALID,20.519,VALID,279,VALID,0.0543064,
2007-04-16, 00:41:00,VALID,918.048,VALID,0,VALID,100,VALID,0.0849042,VALID,20.5422,VALID,15,VALID,0.116776,
2007-04-16, 00:42:00,VALID,918.047,VALID,0,VALID,100,VALID,0.0679233,VALID,20.5614,VALID,16,VALID,0.247852,
2007-04-16, 00:43:00,VALID,918.049,VALID,0,VALID,100,VALID,0.0849042,VALID,20.5877,VALID,17,VALID,0.461301,
2007-04-16, 00:44:00,VALID,918.04,VALID,0,VALID,100,VALID,-0.0509425,VALID,20.6179,VALID,20,VALID,0.476744,
2007-04-16, 00:45:00,VALID,918.031,VALID,0,VALID,100,VALID,0,VALID,20.6306,VALID,26,VALID,0.616815,
2007-04-16, 00:46:00,VALID,918.017,VALID,0,VALID,100,VALID,0,VALID,20.6379,VALID,25,VALID,0.539244,
2007-04-16, 00:47:00,VALID,917.991,VALID,0,VALID,100,VALID,-0.0169808,VALID,20.5984,VALID,23,VALID,0.615854,
2007-04-16, 00:48:00,VALID,917.989,VALID,0,VALID,100,VALID,-0.0339617,VALID,20.5957,VALID,15,VALID,1.04766,
2007-04-16, 00:49:00,VALID,917.975,VALID,0,VALID,100,VALID,-0.0339617,VALID,20.6054,VALID,329,VALID,0.149038,
2007-04-16, 00:50:00,VALID,917.957,VALID,0,VALID,100,VALID,-0.0509425,VALID,20.576,VALID,329,VALID,0.111192,
2007-04-16, 00:51:00,VALID,917.931,VALID,0,VALID,100,VALID,-0.0169808,VALID,20.583,VALID,331,VALID,0.384859,
2007-04-16, 00:52:00,VALID,917.926,VALID,0,VALID,100,VALID,-0.0849042,VALID,20.6022,VALID,333,VALID,0.374306,
2007-04-16, 00:53:00,VALID,917.913,VALID,0,VALID,100,VALID,0,VALID,20.6182,VALID,334,VALID,0.00213068,
2007-04-16, 00:54:00,VALID,917.908,VALID,0,VALID,100,VALID,-0.0169808,VALID,20.6409,VALID,334,VALID,0.00109012,
2007-04-16, 00:55:00,VALID,917.91,VALID,0,VALID,100,VALID,-0.0339617,VALID,20.6571,VALID,334,VALID,0,
2007-04-16, 00:56:00,VALID,917.895,VALID,0,VALID,100,VALID,-0.0169808,VALID,20.6539,VALID,334,VALID,0.0574777,
2007-04-16, 00:57:00,VALID,917.893,VALID,0,VALID,100,VALID,-0.0339617,VALID,20.6961,VALID,334,VALID,0.110085,
2007-04-16, 00:58:00,VALID,917.893,VALID,0,VALID,100,VALID,0,VALID,20.6731,VALID,2,VALID,0.391319,
2007-04-16, 00:59:00,VALID,917.905,VALID,0,VALID,100,VALID,-0.0169808,VALID,20.6763,VALID,20,VALID,0.304501,
2007-04-16, 01:00:00,VALID,917.914,VALID,0,VALID,100,VALID,-0.0169808,VALID,20.6933,VALID,18,VALID,0,
2007-04-16, 01:01:00,VALID,917.921,VALID,0,VALID,100,VALID,-0.0339617,VALID,20.6996,VALID,18,VALID,0.00972222,
2007-04-16, 01:02:00,VALID,917.927,VALID,0,VALID,100,VALID,-0.0169808,VALID,20.6798,VALID,18,VALID,0.0107639,
2007-04-16, 01:03:00,VALID,917.94,VALID,0,VALID,100,VALID,-0.0339617,VALID,20.6474,VALID,18,VALID,0,
2007-04-16, 01:04:00,VALID,917.941,VALID,0,VALID,100,VALID,-0.0339617,VALID,20.6452,VALID,18,VALID,0,
2007-04-16, 01:05:00,VALID,917.957,VALID,0,VALID,100,VALID,-0.0509425,VALID,20.6217,VALID,18,VALID,0.11814,
2007-04-16, 01:06:00,VALID,917.968,VALID,0,VALID,100,VALID,-0.0169808,VALID,20.6154,VALID,18,VALID,0,
2007-04-16, 01:07:00,VALID,917.991,VALID,0,VALID,100,VALID,-0.0339617,VALID,20.6179,VALID,18,VALID,0.00106534,
2007-04-16, 01:08:00,VALID,917.977,VALID,0,VALID,100,VALID,-0.0169808,VALID,20.6387,VALID,18,VALID,0.000181686,
2007-04-16, 01:09:00,VALID,917.987,VALID,0,VALID,100,VALID,-0.0169808,VALID,20.6636,VALID,18,VALID,0.0255682,
2007-04-16, 01:10:00,VALID,917.983,VALID,0,VALID,100,VALID,-0.0339617,VALID,20.6436,VALID,18,VALID,0.00800305,
2007-04-16, 01:11:00,VALID,917.977,VALID,0,VALID,100,VALID,-0.0509425,VALID,20.6179,VALID,18,VALID,0,
2007-04-16, 01:12:00,VALID,917.987,VALID,0,VALID,100,VALID,-0.0169808,VALID,20.6149,VALID,18,VALID,0.00109012,
2007-04-16, 01:13:00,VALID,917.966,VALID,0,VALID,100,VALID,-0.0169808,VALID,20.6025,VALID,18,VALID,0.000762195,
2007-04-16, 01:14:00,VALID,917.949,VALID,0,VALID,100,VALID,-0.0339617,VALID,20.599,VALID,18,VALID,0.000545058,
2007-04-16, 01:15:00,VALID,917.936,VALID,0,VALID,100,VALID,-0.0339617,VALID,20.599,VALID,18,VALID,0,
2007-04-16, 01:16:01,VALID,917.922,VALID,0,VALID,100,VALID,-0.0339617,VALID,20.6119,VALID,18,VALID,0,
2007-04-16, 01:17:00,VALID,917.909,VALID,0,VALID,100,VALID,-0.0339617,VALID,20.6087,VALID,18,VALID,0.0534539,
2007-04-16, 01:18:00,VALID,917.873,VALID,0,VALID,100,VALID,-0.101885,VALID,20.5665,VALID,18,VALID,0.015811,
2007-04-16, 01:19:01,VALID,917.86,VALID,0,VALID,100,VALID,-0.0169808,VALID,20.554,VALID,18,VALID,0,
2007-04-16, 01:20:01,VALID,917.836,VALID,0,VALID,100,VALID,-0.0509425,VALID,20.547,VALID,18,VALID,0.0151042,
2007-04-16, 01:21:00,VALID,917.808,VALID,0,VALID,100,VALID,-0.0679233,VALID,20.5405,VALID,158,VALID,0.830208,
2007-04-16, 01:22:00,VALID,917.797,VALID,0,VALID,100,VALID,-0.0339617,VALID,20.5153,VALID,228,VALID,0.64755,
2007-04-16, 01:23:00,VALID,917.77,VALID,0,VALID,100,VALID,-0.0509425,VALID,20.4924,VALID,271,VALID,0.373884,
2007-04-16, 01:24:00,VALID,917.757,VALID,0,VALID,100,VALID,-0.0339617,VALID,20.4883,VALID,332,VALID,0.427871,
2007-04-16, 01:25:01,VALID,917.717,VALID,0,VALID,100,VALID,-0.0509425,VALID,20.4694,VALID,18,VALID,1.87482,
2007-04-16, 01:26:00,VALID,917.688,VALID,0,VALID,100,VALID,-0.0339617,VALID,20.4202,VALID,30,VALID,0.396151,
2007-04-16, 01:27:00,VALID,917.657,VALID,0,VALID,100,VALID,0,VALID,20.4364,VALID,32,VALID,0.122275,
2007-04-16, 01:28:00,VALID,917.62,VALID,0,VALID,100,VALID,-0.0339617,VALID,20.4624,VALID,32,VALID,0.00053267,
2007-04-16, 01:29:00,VALID,917.59,VALID,0,VALID,100,VALID,-0.0169808,VALID,20.4781,VALID,31,VALID,0.599746,
2007-04-16, 01:30:00,VALID,917.558,VALID,0,VALID,100,VALID,-0.0509425,VALID,20.5113,VALID,33,VALID,0.734738,
2007-04-16, 01:31:00,VALID,917.525,VALID,0,VALID,100,VALID,0,VALID,20.5078,VALID,34,VALID,0.998047,
2007-04-16, 01:32:00,VALID,917.501,VALID,0,VALID,100,VALID,0,VALID,20.5011,VALID,44,VALID,1.08008,
2007-04-16, 01:33:01,VALID,917.47,VALID,0,VALID,100,VALID,-0.0169808,VALID,20.5233,VALID,29,VALID,0.76456,
2007-04-16, 01:34:01,VALID,917.448,VALID,0,VALID,100,VALID,0,VALID,20.507,VALID,33,VALID,1.36955,
2007-04-16, 01:35:01,VALID,917.424,VALID,0,VALID,100,VALID,0,VALID,20.4781,VALID,35,VALID,1.82015,
2007-04-16, 01:36:00,VALID,917.418,VALID,0,VALID,100,VALID,-0.0169808,VALID,20.4978,VALID,30,VALID,1.27785,
2007-04-16, 01:37:00,VALID,917.399,VALID,0,VALID,100,VALID,0,VALID,20.4684,VALID,35,VALID,1.18255,
2007-04-16, 01:38:00,VALID,917.383,VALID,0,VALID,100,VALID,-0.0169808,VALID,20.4651,VALID,30,VALID,1.26992,
2007-04-16, 01:39:00,VALID,917.375,VALID,0,VALID,100,VALID,0,VALID,20.4846,VALID,36,VALID,1.5141,
2007-04-16, 01:40:00,VALID,917.358,VALID,0,VALID,100,VALID,0,VALID,20.4751,VALID,27,VALID,1.73828,
2007-04-16, 01:41:00,VALID,917.364,VALID,0,VALID,100,VALID,-0.0169808,VALID,20.4427,VALID,28,VALID,1.58422,
2007-04-16, 01:42:00,VALID,917.337,VALID,0,VALID,100,VALID,-0.0339617,VALID,20.4391,VALID,15,VALID,0.769804,
2007-04-16, 01:43:01,VALID,917.334,VALID,0,VALID,100,VALID,0.0169808,VALID,20.4294,VALID,20,VALID,0.734375,
2007-04-16, 01:44:00,VALID,917.311,VALID,0,VALID,100,VALID,0,VALID,20.4262,VALID,33,VALID,0.838341,
2007-04-16, 01:45:00,VALID,917.29,VALID,0,VALID,100,VALID,0,VALID,20.4294,VALID,29,VALID,1.2641,
2007-04-16, 01:46:01,VALID,917.246,VALID,0,VALID,100,VALID,-0.0679233,VALID,20.3518,VALID,14,VALID,1.20087,
2007-04-16, 01:47:00,VALID,917.217,VALID,0,VALID,100,VALID,-0.0339617,VALID,20.3031,VALID,21,VALID,1.2391,
2007-04-16, 01:48:00,VALID,917.185,VALID,0,VALID,100,VALID,0,VALID,20.3034,VALID,28,VALID,2.02616,
2007-04-16, 01:49:00,VALID,917.146,VALID,0,VALID,100,VALID,0,VALID,20.2479,VALID,19,VALID,1.58984,
2007-04-16, 01:50:01,VALID,917.11,VALID,0,VALID,100,VALID,-0.0169808,VALID,20.2315,VALID,26,VALID,2.09611,
2007-04-16, 01:51:00,VALID,917.089,VALID,0,VALID,100,VALID,-0.0169808,VALID,20.2444,VALID,24,VALID,1.62155,
2007-04-16, 01:52:01,VALID,917.078,VALID,0,VALID,100,VALID,-0.0169808,VALID,20.1993,VALID,27,VALID,1.94817,
2007-04-16, 01:53:00,VALID,917.06,VALID,0,VALID,100,VALID,0,VALID,20.1893,VALID,36,VALID,2.69606,
2007-04-16, 01:54:01,VALID,917.058,VALID,0,VALID,100,VALID,-0.0339617,VALID,20.1763,VALID,29,VALID,2.1468,
2007-04-16, 01:55:01,VALID,917.049,VALID,0,VALID,100,VALID,0,VALID,20.1014,VALID,16,VALID,1.54161,
2007-04-16, 01:56:01,VALID,917.057,VALID,0,VALID,100,VALID,0,VALID,20.1306,VALID,24,VALID,0.322976,
2007-04-16, 01:57:01,VALID,917.045,VALID,0,VALID,100,VALID,0,VALID,20.1341,VALID,36,VALID,1.09003,
2007-04-16, 01:58:00,VALID,917.057,VALID,0,VALID,100,VALID,-0.0509425,VALID,20.1184,VALID,31,VALID,1.82885,
2007-04-16, 01:59:00,VALID,917.055,VALID,0,VALID,100,VALID,-0.0339617,VALID,20.1309,VALID,42,VALID,1.76007,
2007-04-16, 02:00:01,VALID,917.06,VALID,0,VALID,100,VALID,0,VALID,20.1533,VALID,27,VALID,1.36797,
2007-04-16, 02:01:00,VALID,917.036,VALID,0,VALID,100,VALID,-0.0169808,VALID,20.1736,VALID,30,VALID,1.04743,
2007-04-16, 02:02:01,VALID,917.025,VALID,0,VALID,100,VALID,0,VALID,20.1825,VALID,36,VALID,1.16261,
2007-04-16, 02:03:01,VALID,917,VALID,0,VALID,100,VALID,-0.0169808,VALID,20.1928,VALID,36,VALID,0.996528,
2007-04-16, 02:04:01,VALID,916.989,VALID,0,VALID,100,VALID,-0.0169808,VALID,20.173,VALID,27,VALID,1.11009,
2007-04-16, 02:05:01,VALID,916.981,VALID,0,VALID,100,VALID,-0.0509425,VALID,20.1271,VALID,22,VALID,1.37614,
2007-04-16, 02:06:00,VALID,916.973,VALID,0,VALID,100,VALID,-0.0169808,VALID,20.0952,VALID,26,VALID,1.51972,
2007-04-16, 02:07:01,VALID,916.952,VALID,0,VALID,100,VALID,0,VALID,20.0784,VALID,24,VALID,1.45071,
2007-04-16, 02:08:00,VALID,916.934,VALID,0,VALID,100,VALID,-0.0169808,VALID,20.0695,VALID,15,VALID,1.27813,
2007-04-16, 02:09:01,VALID,916.909,VALID,0,VALID,100,VALID,0,VALID,20.0592,VALID,24,VALID,0.962652,
2007-04-16, 02:10:01,VALID,916.875,VALID,0,VALID,100,VALID,0,VALID,20.0857,VALID,31,VALID,1.04836,
2007-04-16, 02:11:01,VALID,916.864,VALID,0,VALID,100,VALID,-0.0169808,VALID,20.0462,VALID,24,VALID,1.76395,
2007-04-16, 02:12:01,VALID,916.836,VALID,0,VALID,100,VALID,0,VALID,20.0078,VALID,36,VALID,1.5,
2007-04-16, 02:13:01,VALID,916.82,VALID,0,VALID,100,VALID,-0.0169808,VALID,20.014,VALID,16,VALID,1.04102,
2007-04-16, 02:14:01,VALID,916.783,VALID,0,VALID,100,VALID,-0.0169808,VALID,20.0011,VALID,32,VALID,0.954514,
2007-04-16, 02:15:00,VALID,916.758,VALID,0,VALID,100,VALID,-0.0339617,VALID,19.9818,VALID,39,VALID,1.30599,
2007-04-16, 02:16:00,VALID,916.721,VALID,0,VALID,100,VALID,-0.0169808,VALID,19.9913,VALID,26,VALID,1.44059,
2007-04-16, 02:17:00,VALID,916.676,VALID,0,VALID,100,VALID,-0.0339617,VALID,19.9848,VALID,35,VALID,1.81231,
2007-04-16, 02:18:00,VALID,916.636,VALID,0,VALID,100,VALID,-0.0169808,VALID,19.9586,VALID,26,VALID,1.26491,
2007-04-16, 02:19:00,VALID,916.614,VALID,0,VALID,100,VALID,0,VALID,19.9816,VALID,21,VALID,1.28597,
2007-04-16, 02:20:00,VALID,916.59,VALID,0,VALID,100,VALID,0,VALID,19.9654,VALID,35,VALID,1.32717,
2007-04-16, 02:21:00,VALID,916.558,VALID,0,VALID,100,VALID,-0.0169808,VALID,19.9424,VALID,44,VALID,1.25,
2007-04-16, 02:22:00,VALID,916.514,VALID,0,VALID,100,VALID,0,VALID,19.9394,VALID,41,VALID,1.09531,
2007-04-16, 02:23:00,VALID,916.469,VALID,0,VALID,100,VALID,0,VALID,19.9459,VALID,49,VALID,1.32086,
2007-04-16, 02:24:00,VALID,916.42,VALID,0,VALID,100,VALID,-0.0169808,VALID,19.9491,VALID,40,VALID,1.44607,
2007-04-16, 02:25:00,VALID,916.381,VALID,0,VALID,100,VALID,0,VALID,19.9327,VALID,44,VALID,1.09266,
2007-04-16, 02:26:00,VALID,916.347,VALID,0,VALID,100,VALID,-0.0169808,VALID,19.9132,VALID,54,VALID,1.5266,
2007-04-16, 02:27:00,VALID,916.327,VALID,0,VALID,100,VALID,0,VALID,19.9234,VALID,62,VALID,1.60156,
2007-04-16, 02:28:00,VALID,916.319,VALID,0,VALID,100,VALID,-0.0509425,VALID,19.9007,VALID,65,VALID,1.42392,
2007-04-16, 02:29:00,VALID,916.32,VALID,0,VALID,100,VALID,-0.0509425,VALID,19.895,VALID,50,VALID,1.56566,
2007-04-16, 02:30:00,VALID,916.336,VALID,0,VALID,100,VALID,-0.0679233,VALID,19.8912,VALID,62,VALID,1.15664,
2007-04-16, 02:31:00,VALID,916.336,VALID,0,VALID,100,VALID,-0.0679233,VALID,19.9112,VALID,68,VALID,0.884859,
2007-04-16, 02:32:00,VALID,916.356,VALID,0,VALID,100,VALID,-0.101885,VALID,19.9047,VALID,98,VALID,0.624834,
2007-04-16, 02:33:00,VALID,916.349,VALID,0,VALID,100,VALID,-0.0509425,VALID,19.8917,VALID,97,VALID,0.674782,
2007-04-16, 02:34:00,VALID,916.324,VALID,0,VALID,100,VALID,-0.0509425,VALID,19.8977,VALID,100,VALID,0.351199,
2007-04-16, 02:35:00,VALID,916.307,VALID,0,VALID,100,VALID,-0.0679233,VALID,19.8977,VALID,104,VALID,0.167187,
2007-04-16, 02:36:00,VALID,916.283,VALID,0,VALID,100,VALID,-0.0509425,VALID,19.8912,VALID,104,VALID,0.185865,
2007-04-16, 02:37:00,VALID,916.243,VALID,0,VALID,100,VALID,-0.0339617,VALID,19.9037,VALID,104,VALID,0.117001,
2007-04-16, 02:38:00,VALID,916.207,VALID,0,VALID,100,VALID,-0.0169808,VALID,19.9556,VALID,70,VALID,0.399368,
2007-04-16, 02:39:00,VALID,916.19,VALID,0,VALID,100,VALID,0,VALID,19.9394,VALID,49,VALID,0.456745,
2007-04-16, 02:40:00,VALID,916.18,VALID,0,VALID,100,VALID,-0.0509425,VALID,19.9491,VALID,46,VALID,0.0395833,
2007-04-16, 02:41:00,VALID,916.166,VALID,0,VALID,100,VALID,-0.0169808,VALID,19.9494,VALID,46,VALID,0,
2007-04-16, 02:42:00,VALID,916.158,VALID,0,VALID,100,VALID,-0.0169808,VALID,19.9524,VALID,46,VALID,0.0012429,
2007-04-16, 02:43:00,VALID,916.138,VALID,0,VALID,100,VALID,0,VALID,19.9294,VALID,46,VALID,0.0627003,
2007-04-16, 02:44:00,VALID,916.126,VALID,0,VALID,100,VALID,-0.118866,VALID,19.9409,VALID,35,VALID,0.246982,
2007-04-16, 02:45:00,VALID,916.121,VALID,0,VALID,100,VALID,-0.101885,VALID,19.9377,VALID,33,VALID,0.122713,
2007-04-16, 02:46:00,VALID,916.123,VALID,0,VALID,100,VALID,-0.101885,VALID,19.9766,VALID,33,VALID,0,
2007-04-16, 02:47:00,VALID,916.108,VALID,0,VALID,100,VALID,-0.101885,VALID,19.9831,VALID,33,VALID,0,
2007-04-16, 02:48:00,VALID,916.093,VALID,0,VALID,100,VALID,-0.101885,VALID,19.9998,VALID,33,VALID,0,
2007-04-16, 02:49:00,VALID,916.061,VALID,0,VALID,100,VALID,-0.118866,VALID,19.9993,VALID,33,VALID,0,
2007-04-16, 02:50:00,VALID,916.038,VALID,0,VALID,100,VALID,-0.135847,VALID,20.0133,VALID,33,VALID,0.0580357,
2007-04-16, 02:51:00,VALID,916.004,VALID,0,VALID,100,VALID,-0.101885,VALID,19.9671,VALID,33,VALID,0.148256,
2007-04-16, 02:52:00,VALID,915.973,VALID,0,VALID,100,VALID,-0.135847,VALID,19.9447,VALID,33,VALID,0.261161,
2007-04-16, 02:53:00,VALID,915.947,VALID,0,VALID,100,VALID,-0.101885,VALID,19.9606,VALID,33,VALID,0.230469,
2007-04-16, 02:54:00,VALID,915.946,VALID,0,VALID,100,VALID,-0.169808,VALID,19.9676,VALID,33,VALID,0.225781,
2007-04-16, 02:55:00,VALID,915.947,VALID,0,VALID,100,VALID,-0.118866,VALID,19.9379,VALID,59,VALID,0.560082,
2007-04-16, 02:56:00,VALID,915.929,VALID,0,VALID,100,VALID,-0.152827,VALID,19.8765,VALID,64,VALID,0.70694,
2007-04-16, 02:57:00,VALID,915.911,VALID,0,VALID,100,VALID,-0.152827,VALID,19.8508,VALID,73,VALID,0.693004,
2007-04-16, 02:58:00,VALID,915.885,VALID,0,VALID,100,VALID,-0.101885,VALID,19.8306,VALID,78,VALID,0.613653,
2007-04-16, 02:59:00,VALID,915.861,VALID,0,VALID,100,VALID,0.0509425,VALID,19.8478,VALID,79,VALID,0.485491,
2007-04-16, 03:00:00,VALID,915.862,VALID,0,VALID,100,VALID,0.0339617,VALID,19.8216,VALID,83,VALID,0.483333,
2007-04-16, 03:01:00,VALID,915.853,VALID,0,VALID,100,VALID,0.0849042,VALID,19.8086,VALID,87,VALID,0.3391,
2007-04-16, 03:02:00,VALID,915.869,VALID,0,VALID,100,VALID,0.0679233,VALID,19.7894,VALID,87,VALID,0.0990189,
2007-04-16, 03:03:00,VALID,915.864,VALID,0,VALID,100,VALID,0.0509425,VALID,19.7824,VALID,87,VALID,0.103161,
2007-04-16, 03:04:00,VALID,915.859,VALID,0,VALID,100,VALID,0.0849042,VALID,19.7757,VALID,87,VALID,0.177827,
2007-04-16, 03:05:00,VALID,915.853,VALID,0,VALID,100,VALID,0.118866,VALID,19.7659,VALID,87,VALID,0.377477,
2007-04-16, 03:06:00,VALID,915.848,VALID,0,VALID,100,VALID,0.0679233,VALID,19.7694,VALID,109,VALID,0.513579,
2007-04-16, 03:07:00,VALID,915.849,VALID,0,VALID,100,VALID,0.0339617,VALID,19.7697,VALID,134,VALID,0.641183,
2007-04-16, 03:08:00,VALID,915.831,VALID,0,VALID,100,VALID,0.0849042,VALID,19.7562,VALID,165,VALID,0.518229,
2007-04-16, 03:09:00,VALID,915.84,VALID,0,VALID,100,VALID,0.0849042,VALID,19.7624,VALID,165,VALID,0.21059,
2007-04-16, 03:10:00,VALID,915.847,VALID,0,VALID,100,VALID,0.0849042,VALID,19.7662,VALID,165,VALID,0.111421,
2007-04-16, 03:11:00,VALID,915.849,VALID,0,VALID,100,VALID,0.0679233,VALID,19.7532,VALID,165,VALID,0.400746,
2007-04-16, 03:12:00,VALID,915.852,VALID,0,VALID,100,VALID,0.0679233,VALID,19.7335,VALID,165,VALID,0.512891,
2007-04-16, 03:13:00,VALID,915.858,VALID,0,VALID,100,VALID,0.0679233,VALID,19.7442,VALID,165,VALID,0.336509,
2007-04-16, 03:14:00,VALID,915.872,VALID,0,VALID,100,VALID,-0.118866,VALID,19.7365,VALID,165,VALID,0.319169,
2007-04-16, 03:15:00,VALID,915.884,VALID,0,VALID,100,VALID,-0.118866,VALID,19.7295,VALID,165,VALID,0.324929,
2007-04-16, 03:16:00,VALID,915.889,VALID,0,VALID,100,VALID,-0.101885,VALID,19.723,VALID,165,VALID,0.372954,
2007-04-16, 03:17:00,VALID,915.885,VALID,0,VALID,100,VALID,-0.118866,VALID,19.7103,VALID,171,VALID,0.558594,
2007-04-16, 03:18:00,VALID,915.892,VALID,0,VALID,100,VALID,-0.135847,VALID,19.6943,VALID,177,VALID,0.440358,
2007-04-16, 03:19:00,VALID,915.887,VALID,0,VALID,100,VALID,-0.135847,VALID,19.6811,VALID,177,VALID,0.278525,
2007-04-16, 03:20:00,VALID,915.885,VALID,0,VALID,100,VALID,-0.118866,VALID,19.6846,VALID,177,VALID,0.332812,
2007-04-16, 03:21:00,VALID,915.875,VALID,0,VALID,100,VALID,-0.101885,VALID,19.6811,VALID,177,VALID,0.354611,
2007-04-16, 03:22:00,VALID,915.863,VALID,0,VALID,100,VALID,-0.118866,VALID,19.6813,VALID,177,VALID,0.272485,
2007-04-16, 03:23:00,VALID,915.864,VALID,0,VALID,100,VALID,-0.101885,VALID,19.6684,VALID,177,VALID,0.362165,
2007-04-16, 03:24:00,VALID,915.888,VALID,0,VALID,100,VALID,-0.118866,VALID,19.6586,VALID,177,VALID,0.208333,
2007-04-16, 03:25:00,VALID,915.908,VALID,0,VALID,100,VALID,-0.118866,VALID,19.6456,VALID,206,VALID,0.225991,
2007-04-16, 03:26:00,VALID,915.914,VALID,0,VALID,100,VALID,-0.135847,VALID,19.6456,VALID,228,VALID,0.615699,
2007-04-16, 03:27:00,VALID,915.932,VALID,0,VALID,100,VALID,-0.118866,VALID,19.6589,VALID,240,VALID,0.234908,
2007-04-16, 03:28:00,VALID,915.926,VALID,0,VALID,100,VALID,-0.118866,VALID,19.6521,VALID,238,VALID,0.0522104,
2007-04-16, 03:29:00,VALID,915.93,VALID,0,VALID,100,VALID,-0.0849042,VALID,19.6549,VALID,238,VALID,0.0259146,
2007-04-16, 03:30:00,VALID,915.906,VALID,0,VALID,100,VALID,-0.0509425,VALID,19.6614,VALID,238,VALID,0,
2007-04-16, 03:31:00,VALID,915.9,VALID,0,VALID,100,VALID,-0.101885,VALID,19.6227,VALID,238,VALID,0.00106534,
2007-04-16, 03:32:00,VALID,915.872,VALID,0,VALID,100,VALID,-0.0849042,VALID,19.6002,VALID,238,VALID,0.131541,
2007-04-16, 03:33:00,VALID,915.86,VALID,0,VALID,100,VALID,-0.101885,VALID,19.5613,VALID,238,VALID,0.259055,
2007-04-16, 03:34:00,VALID,915.848,VALID,0,VALID,100,VALID,-0.101885,VALID,19.5288,VALID,238,VALID,0.443314,
2007-04-16, 03:35:00,VALID,915.853,VALID,0,VALID,100,VALID,-0.0849042,VALID,19.5191,VALID,238,VALID,0.318638,
2007-04-16, 03:36:00,VALID,915.851,VALID,0,VALID,100,VALID,-0.101885,VALID,19.4964,VALID,238,VALID,0.308866,
2007-04-16, 03:37:00,VALID,915.865,VALID,0,VALID,100,VALID,-0.0849042,VALID,19.4737,VALID,215,VALID,0.538491,
2007-04-16, 03:38:00,VALID,915.882,VALID,0,VALID,100,VALID,-0.101885,VALID,19.4702,VALID,180,VALID,0.726563,
2007-04-16, 03:39:00,VALID,915.905,VALID,0,VALID,100,VALID,-0.0679233,VALID,19.4989,VALID,172,VALID,0.820713,
2007-04-16, 03:40:00,VALID,915.918,VALID,0,VALID,100,VALID,-0.0849042,VALID,19.5508,VALID,170,VALID,0.764931,
2007-04-16, 03:41:00,VALID,915.921,VALID,0,VALID,100,VALID,-0.0849042,VALID,19.5902,VALID,168,VALID,0.29581,